Wind_Speed
13 13 12 12 13 13 12 11 11 11 11 10 10 10 10 9 9 9 9 9 8 8 8 8 7 6 6 6 5 5 6 6 6 6 5 5 5 5 5 4 4 4 4 4 4 4 4 4 4
12 13 12 13 13 11 11 11 11 11 11 10 10 10 9 9 9 9 9 9 9 8 8 7 6 6 6 6 5 5 5 5 5 6 5 5 5 4 3 3 3 3 3 4 4 5 4 4 3
13 13 12 13 12 11 11 11 11 12 11 10 10 10 10 9 8 8 9 9 9 8 7 7 6 6 6 5 5 5 5 5 5 5 5 5 4 4 4 4 3 3 3 3 3 4 3 3 3
13 13 13 13 11 12 12 11 12 12 11 10 10 10 9 8 8 8 8 8 8 7 7 6 6 5 5 5 5 4 4 4 5 4 4 5 4 4 4 4 4 3 3 3 3 3 3 2 2
13 13 13 12 12 11 11 11 11 12 11 10 10 9 9 8 8 7 7 7 7 6 6 5 5 5 4 5 4 4 4 4 5 4 4 4 5 5 4 4 4 4 5 4 3 3 3 2 2
12 12 11 10 11 12 11 11 12 11 11 10 9 9 8 8 7 7 6 6 6 5 4 4 4 4 4 4 4 4 4 4 5 4 3 4 4 5 5 4 4 3 5 4 4 3 2 2 3
12 12 11 11 11 12 11 11 12 11 11 10 9 8 8 7 7 7 6 5 5 4 4 4 3 3 3 4 5 5 5 5 4 4 4 4 4 4 4 4 3 3 4 5 4 4 3 3 3
12 12 10 10 11 11 11 11 11 11 11 10 9 8 8 7 6 6 5 5 4 4 3 3 3 3 4 4 4 5 4 4 4 4 4 4 3 4 4 4 3 2 2 3 3 3 3 3 2
11 11 9 10 10 10 11 11 11 11 10 10 9 9 8 7 6 5 5 5 4 4 3 3 3 3 3 4 4 4 4 3 3 3 3 3 3 3 3 3 3 2 2 2 3 3 2 2 2
11 10 9 10 10 10 11 11 10 10 10 9 9 9 8 7 6 5 5 4 4 4 4 3 2 2 2 2 3 3 2 2 2 2 2 2 2 3 3 3 3 2 2 1 1 2 2 2 2
10 9 9 9 9 9 10 10 10 10 9 9 8 8 8 7 6 5 5 4 4 4 4 3 2 1 1 2 2 2 2 1 1 1 1 1 1 2 2 2 2 2 1 1 1 0 1 1 1
9 9 9 8 8 8 9 10 10 9 9 8 8 7 7 7 6 5 5 5 4 4 4 4 2 1 1 2 2 1 1 0 1 1 1 1 1 1 2 2 2 2 2 2 1 1 1 1 1
7 7 8 8 8 8 8 8 8 8 8 8 8 7 6 6 7 6 5 4 4 4 3 3 3 2 1 1 1 1 1 1 1 2 2 2 2 2 2 3 3 3 3 3 2 2 2 2 2
6 5 5 6 6 6 6 7 7 7 7 7 8 7 7 7 7 6 5 5 4 4 3 3 2 2 1 0 1 1 1 1 1 2 2 2 3 3 4 3 4 4 3 3 3 3 3 4 4
4 4 4 4 5 5 5 5 5 5 5 6 7 6 6 6 6 6 5 5 5 4 4 3 2 1 1 1 2 2 2 2 2 2 2 2 3 3 3 3 4 4 4 4 4 4 4 5 5
3 3 2 2 3 4 4 4 4 4 4 5 6 6 7 6 6 6 6 6 5 5 4 3 2 2 2 2 3 3 3 3 3 3 3 3 3 4 4 4 4 4 5 5 5 5 5 5 6
2 2 1 1 1 1 2 3 4 4 4 4 5 6 7 7 7 7 6 6 5 5 5 3 3 3 3 3 3 3 3 4 4 4 4 5 5 5 5 5 5 5 6 6 6 7 7 6 6
3 3 2 2 1 1 2 2 3 4 4 4 5 6 6 7 8 7 7 6 6 6 5 5 4 4 3 3 4 4 4 4 5 5 5 5 5 6 6 6 6 6 7 8 8 8 8 8 8
5 4 3 3 2 2 2 3 3 3 4 5 5 5 6 7 7 7 7 7 7 6 6 6 6 5 5 4 5 5 5 5 5 5 6 6 6 6 7 7 7 8 8 9 9 9 9 9 9
5 5 5 4 3 3 3 3 3 3 4 5 6 6 6 7 7 7 7 7 7 7 7 7 6 6 6 6 6 5 5 6 6 7 7 7 8 8 8 8 8 9 9 9 9 9 10 10 11
6 6 7 6 4 4 4 4 5 5 6 6 6 7 7 8 8 9 8 8 8 8 8 8 7 7 7 7 7 6 7 7 7 8 8 9 9 9 10 10 10 10 10 11 10 10 11 11 12
7 8 7 7 6 6 6 6 7 5 5 5 7 8 8 8 9 9 9 9 10 9 9 9 8 8 9 9 8 8 8 9 9 10 10 10 10 11 11 11 12 11 11 12 12 12 12 12 13
10 10 9 9 8 8 7 7 8 7 6 6 7 8 8 8 9 9 10 11 11 11 11 10 10 10 10 10 10 10 10 10 11 12 12 12 12 12 13 13 13 13 13 13 13 14 14 14 14
12 12 11 11 10 10 9 9 9 9 9 9 9 9 9 9 10 11 11 12 12 12 12 12 11 11 11 12 12 12 12 13 13 13 14 14 14 14 14 14 15 15 15 15 15 15 15 15 16
12 11 11 11 12 13 12 11 11 12 11 12 11 11 11 12 12 12 13 13 13 13 14 13 12 12 12 13 13 13 13 14 14 15 15 15 15 15 15 15 16 16 16 16 16 16 16 16 16
14 13 13 13 13 14 15 14 14 14 13 13 13 13 13 14 14 14 14 14 14 14 15 15 14 14 14 13 14 14 15 15 15 16 16 16 16 16 16 16 16 16 17 17 17 17 17 17 18
16 15 15 16 16 15 16 17 17 16 15 15 15 15 15 15 15 15 14 15 15 15 16 16 16 15 15 15 15 16 16 16 16 16 16 16 17 17 17 17 17 17 18 19 19 19 19 19 19
18 18 17 17 17 17 18 17 18 18 17 16 16 16 16 16 16 16 16 16 17 16 16 16 16 16 16 17 17 17 17 17 17 17 17 17 18 18 19 19 19 19 19 20 20 20 20 20 20
20 20 19 19 19 18 19 18 19 18 18 17 17 18 18 17 17 17 17 17 17 17 17 17 17 17 17 18 18 17 18 18 18 17 17 18 19 19 19 20 20 20 21 21 21 21 21 22 21
21 20 20 20 20 20 19 20 20 19 19 19 19 18 18 18 19 19 19 19 18 18 18 18 18 18 18 18 18 17 17 18 18 18 19 19 20 20 20 21 21 21 21 21 21 22 22 22 22
Wind_Direction
85 86 89 92 91 91 95 96 96 98 99 97 95 94 95 91 92 89 86 82 87 95 97 96 103 111 116 122 129 142 133 134 133 132 129 126 131 132 135 141 136 141 147 149 150 150 154 166 165
88 86 89 90 89 92 92 93 92 94 96 94 92 90 89 89 90 86 83 83 87 93 98 100 104 113 119 119 122 130 133 134 137 137 135 128 133 132 133 139 137 142 153 155 157 154 158 164 170
89 88 88 88 90 95 94 94 93 95 95 94 92 89 85 84 85 84 85 86 89 92 95 98 104 113 119 120 120 126 130 131 134 136 138 130 131 136 140 127 121 127 141 156 164 166 167 169 179
86 89 85 87 92 95 93 93 95 93 91 93 94 87 81 80 86 88 89 90 92 92 92 93 101 109 116 119 120 117 122 135 142 143 134 131 133 130 129 116 112 119 129 134 140 152 148 156 191
87 87 83 85 89 91 90 89 91 89 86 88 93 87 81 82 87 91 91 92 92 90 90 94 97 100 112 115 122 120 114 127 139 140 130 134 137 133 130 126 117 112 118 124 133 137 146 170 185
87 86 87 89 86 87 86 82 82 83 83 86 90 88 84 82 86 87 88 89 86 84 81 92 94 96 104 117 123 116 112 116 122 129 133 137 133 127 131 134 132 119 115 129 139 145 158 165 184
90 89 89 90 89 87 83 80 78 78 80 81 84 85 83 83 85 83 84 86 85 82 81 80 83 89 113 124 123 113 109 106 112 122 133 134 133 135 138 145 145 136 116 133 144 148 156 164 184
92 89 87 90 89 85 80 77 75 74 75 78 77 75 73 77 83 83 82 81 76 78 81 86 81 102 118 133 125 121 111 107 110 119 132 139 138 145 151 155 161 156 136 131 157 163 164 177 195
94 92 91 91 90 81 74 74 74 75 76 74 74 73 72 71 73 77 79 78 72 68 66 74 91 113 110 116 112 119 122 116 122 131 137 140 145 154 167 163 168 173 174 163 148 163 177 179 198
90 97 93 92 93 83 73 71 72 74 73 70 70 69 68 67 70 71 77 76 68 60 57 63 88 119 97 99 118 123 120 122 140 142 137 147 152 159 170 172 171 180 185 171 147 132 160 160 184
93 96 90 91 95 86 78 73 71 70 70 68 66 64 62 64 65 64 65 61 55 48 44 49 53 87 90 108 120 117 110 122 160 161 149 138 147 153 170 183 188 194 198 181 192 172 165 174 186
96 95 90 89 88 87 84 75 70 69 64 63 61 59 60 61 61 57 51 45 39 33 33 38 44 51 84 116 122 92 148 213 195 194 210 225 217 223 212 210 212 210 214 225 248 266 273 272 265
101 94 87 89 84 87 82 74 69 64 57 54 49 45 45 49 47 45 44 39 33 32 32 28 42 49 82 147 152 159 194 219 211 213 231 244 247 251 242 245 230 221 219 232 248 260 276 280 267
108 98 85 86 84 83 77 68 64 59 50 45 43 42 38 36 32 34 35 32 27 24 25 17 17 29 33 292 280 250 222 218 209 215 222 240 254 258 255 248 238 235 234 243 253 263 270 281 284
112 96 73 78 75 71 69 62 52 48 40 33 33 33 30 26 25 26 23 19 15 10 1 345 326 310 285 278 295 269 246 236 233 241 243 252 258 254 256 251 242 241 246 251 256 265 273 280 285
126 97 90 78 66 66 61 49 31 31 20 11 14 19 16 15 14 11 7 5 3 357 347 336 324 306 290 286 284 271 262 257 260 261 269 272 271 266 268 259 259 260 254 258 261 270 277 279 283
130 132 142 149 79 56 45 34 15 7 359 355 357 360 3 5 3 1 357 357 356 352 345 334 322 310 291 280 284 290 276 263 264 265 268 271 275 275 274 269 268 271 270 269 265 267 274 279 282
197 191 211 232 240 305 338 342 346 356 349 341 341 344 348 354 355 353 350 345 343 340 333 321 316 316 300 285 287 284 283 272 274 271 272 273 274 275 272 270 271 272 271 271 271 273 277 279 280
216 221 241 254 265 279 290 308 327 346 340 332 329 328 331 341 346 340 338 336 330 331 328 318 312 310 305 291 288 280 279 274 275 277 275 276 274 271 272 274 270 271 271 271 272 271 272 274 277
232 233 248 264 272 278 288 291 311 321 318 320 325 326 326 329 334 333 328 325 320 320 323 317 313 309 306 300 295 278 276 275 273 272 276 278 276 274 273 275 273 271 271 271 272 273 272 275 277
252 250 253 261 278 274 279 289 294 314 315 312 319 322 325 325 327 330 329 324 319 314 311 310 303 302 302 298 293 284 284 281 279 279 278 277 276 276 278 277 276 275 274 272 275 275 275 277 278
260 257 257 257 272 287 281 294 290 290 302 305 311 314 314 318 322 326 326 325 323 318 309 301 298 299 299 298 292 289 286 284 284 282 281 281 281 279 278 278 277 276 275 275 276 277 278 278 279
259 262 263 265 271 279 281 287 290 278 284 292 299 306 307 309 314 320 321 320 318 315 310 302 299 299 299 297 294 291 288 287 286 286 284 284 283 282 280 278 276 277 276 276 276 276 277 278 278
261 268 270 273 277 280 281 282 287 281 274 277 286 294 297 304 308 312 315 315 315 313 309 307 303 300 295 294 294 292 288 286 285 284 283 282 282 280 281 279 280 280 278 277 277 276 277 277 277
259 269 277 280 281 280 281 279 281 280 281 281 284 288 291 296 302 306 308 311 311 310 306 304 302 299 296 293 293 293 290 289 288 286 286 285 283 281 281 279 280 281 280 278 278 276 276 276 276
257 260 262 266 270 276 282 280 281 280 280 280 281 286 288 291 295 299 304 307 309 308 308 304 302 300 297 294 291 291 290 289 290 288 285 284 283 282 282 282 282 281 280 278 278 277 275 275 274
261 259 262 265 269 272 275 278 278 279 279 279 281 282 285 289 291 292 295 299 303 305 305 305 303 301 299 294 291 291 290 289 288 288 286 282 281 281 281 282 281 281 280 278 277 276 275 274 274
259 262 265 263 266 268 274 281 279 279 282 282 280 282 282 284 287 288 291 295 298 300 303 303 302 301 299 297 295 293 291 290 287 287 287 283 281 280 279 280 280 280 278 277 276 275 273 273 274
263 262 262 264 264 266 271 274 276 278 280 280 282 281 281 281 282 285 289 293 296 297 299 300 299 299 298 298 295 295 296 293 286 286 287 285 283 281 280 279 279 279 277 276 275 274 273 273 273
261 262 262 264 267 267 267 270 275 276 277 279 280 280 279 279 280 282 286 289 293 295 296 296 297 298 297 297 298 299 297 295 290 285 287 287 285 282 281 280 278 277 277 275 274 273 274 273 274
Height
5894 5894 5894 5894 5895 5895 5894 5894 5892 5892 5891 5890 5890 5889 5889 5889 5889 5891 5888 5885 5885 5885 5884 5884 5883 5883 5883 5883 5883 5883 5883 5883 5883 5883 5883 5883 5883 5883 5883 5883 5883 5883 5883 5884 5884 5885 5885 5886 5887
5896 5896 5896 5896 5897 5897 5896 5894 5894 5893 5892 5891 5891 5890 5890 5889 5889 5889 5887 5887 5887 5886 5885 5885 5885 5884 5884 5884 5884 5884 5884 5883 5884 5884 5883 5883 5883 5883 5883 5883 5883 5883 5883 5883 5884 5885 5885 5886 5886
5898 5898 5899 5898 5898 5898 5897 5896 5895 5894 5893 5892 5892 5891 5891 5891 5890 5889 5889 5888 5888 5887 5887 5886 5886 5885 5885 5884 5884 5884 5884 5884 5884 5884 5884 5884 5884 5883 5883 5883 5883 5882 5883 5883 5884 5885 5885 5886 5886
5900 5900 5900 5901 5900 5899 5898 5897 5896 5895 5894 5893 5893 5893 5892 5891 5891 5890 5890 5889 5889 5888 5888 5887 5887 5886 5885 5885 5885 5885 5885 5884 5884 5884 5884 5884 5884 5884 5884 5884 5883 5883 5883 5883 5884 5885 5885 5886 5886
5901 5902 5903 5903 5901 5901 5900 5898 5897 5896 5896 5895 5894 5893 5893 5892 5892 5891 5891 5890 5890 5889 5889 5888 5888 5887 5886 5886 5886 5885 5885 5885 5885 5885 5884 5884 5884 5884 5885 5885 5884 5883 5883 5883 5884 5885 5885 5886 5886
5904 5904 5906 5905 5903 5902 5901 5900 5899 5898 5897 5896 5895 5895 5894 5893 5893 5893 5892 5891 5891 5890 5890 5889 5888 5888 5887 5887 5886 5886 5886 5885 5885 5885 5885 5885 5885 5885 5885 5885 5884 5884 5884 5884 5884 5884 5885 5885 5885
5906 5907 5906 5906 5905 5904 5903 5902 5900 5899 5898 5898 5897 5896 5895 5894 5894 5894 5893 5892 5892 5891 5891 5890 5889 5888 5888 5887 5887 5887 5886 5886 5885 5885 5885 5885 5885 5885 5885 5885 5885 5885 5884 5884 5884 5884 5885 5885 5885
5907 5909 5908 5907 5907 5906 5905 5903 5902 5901 5900 5899 5898 5897 5896 5896 5895 5894 5894 5893 5893 5892 5891 5891 5890 5888 5888 5887 5887 5887 5887 5887 5886 5886 5886 5885 5885 5885 5885 5885 5885 5885 5885 5884 5884 5885 5885 5885 5885
5909 5911 5910 5909 5908 5907 5906 5905 5904 5902 5901 5900 5899 5899 5898 5897 5896 5895 5895 5894 5893 5893 5892 5891 5891 5890 5888 5888 5888 5888 5888 5887 5887 5886 5886 5886 5886 5885 5885 5885 5885 5885 5885 5885 5885 5885 5884 5884 5884
5911 5911 5911 5910 5909 5908 5907 5906 5905 5904 5903 5902 5901 5900 5899 5898 5897 5896 5896 5895 5894 5893 5893 5892 5891 5891 5890 5889 5889 5888 5888 5888 5887 5887 5887 5886 5886 5885 5885 5885 5885 5885 5885 5885 5885 5885 5884 5884 5883
5912 5912 5911 5910 5910 5909 5908 5908 5906 5905 5905 5904 5903 5902 5900 5899 5898 5897 5897 5896 5895 5894 5893 5892 5892 5891 5890 5890 5889 5889 5888 5888 5888 5887 5887 5886 5886 5886 5886 5886 5885 5885 5885 5885 5885 5885 5885 5884 5884
5913 5913 5912 5912 5911 5910 5910 5909 5908 5907 5906 5905 5904 5903 5901 5900 5899 5898 5898 5896 5895 5894 5894 5893 5892 5891 5891 5890 5890 5889 5889 5888 5888 5888 5887 5887 5886 5886 5886 5886 5885 5885 5885 5885 5885 5885 5884 5884 5884
5914 5914 5913 5913 5912 5911 5911 5910 5909 5908 5907 5906 5905 5904 5903 5901 5900 5899 5898 5897 5896 5895 5894 5893 5892 5891 5891 5890 5890 5889 5889 5888 5888 5887 5887 5887 5886 5886 5885 5885 5885 5885 5885 5885 5885 5885 5884 5884 5884
5915 5915 5914 5913 5913 5912 5912 5911 5910 5909 5908 5908 5906 5905 5904 5902 5901 5900 5899 5897 5896 5895 5894 5893 5892 5891 5891 5890 5889 5889 5888 5888 5887 5887 5887 5886 5886 5885 5885 5885 5885 5885 5885 5884 5884 5884 5884 5884 5883
5915 5915 5915 5914 5914 5913 5913 5912 5911 5910 5909 5908 5907 5906 5905 5903 5902 5900 5899 5898 5896 5895 5894 5893 5892 5891 5890 5889 5889 5888 5888 5888 5887 5887 5887 5886 5886 5885 5885 5884 5884 5884 5884 5884 5884 5884 5883 5883 5883
5916 5916 5916 5915 5914 5914 5915 5914 5912 5911 5910 5909 5908 5907 5905 5904 5902 5901 5899 5897 5896 5895 5893 5892 5891 5890 5889 5889 5888 5888 5887 5887 5887 5886 5886 5886 5885 5885 5884 5884 5884 5883 5883 5883 5883 5882 5882 5882 5881
5916 5917 5916 5916 5915 5914 5914 5914 5913 5911 5910 5909 5908 5907 5905 5904 5902 5900 5899 5897 5896 5894 5893 5892 5891 5890 5889 5888 5887 5887 5886 5886 5886 5885 5885 5884 5884 5883 5883 5883 5882 5882 5882 5882 5881 5881 5881 5880 5880
5917 5917 5916 5916 5915 5914 5914 5913 5912 5911 5910 5909 5908 5906 5905 5903 5902 5900 5899 5897 5895 5894 5893 5891 5890 5889 5888 5887 5886 5886 5885 5885 5884 5884 5884 5883 5883 5882 5882 5881 5881 5881 5881 5880 5879 5879 5879 5878 5878
5915 5915 5915 5915 5914 5914 5913 5912 5912 5911 5910 5908 5907 5906 5904 5903 5901 5900 5898 5896 5895 5893 5892 5890 5889 5888 5887 5886 5886 5885 5884 5884 5883 5883 5882 5881 5881 5880 5880 5879 5879 5879 5879 5878 5877 5877 5877 5876 5876
5914 5914 5914 5914 5913 5913 5912 5912 5911 5910 5909 5908 5906 5905 5904 5902 5901 5899 5897 5896 5894 5892 5891 5889 5888 5887 5886 5885 5884 5883 5883 5882 5881 5881 5880 5879 5879 5878 5877 5877 5877 5876 5876 5875 5875 5875 5874 5874 5873
5913 5913 5913 5913 5912 5912 5912 5912 5911 5909 5908 5907 5905 5904 5903 5902 5900 5898 5897 5895 5893 5891 5890 5888 5887 5886 5885 5884 5883 5882 5881 5880 5880 5879 5878 5877 5876 5876 5875 5874 5874 5874 5873 5873 5872 5872 5872 5871 5871
5911 5911 5911 5911 5911 5911 5911 5910 5909 5908 5907 5905 5904 5903 5901 5900 5899 5897 5895 5893 5892 5890 5888 5886 5885 5884 5883 5882 5880 5880 5879 5878 5877 5876 5875 5874 5873 5873 5872 5872 5871 5870 5870 5870 5869 5869 5868 5868 5867
5908 5908 5908 5908 5908 5909 5909 5908 5909 5906 5905 5904 5902 5901 5900 5898 5897 5896 5894 5892 5890 5888 5886 5884 5883 5882 5881 5880 5879 5878 5877 5876 5875 5874 5873 5871 5870 5869 5869 5868 5867 5867 5867 5866 5866 5865 5865 5864 5864
5905 5906 5906 5906 5906 5907 5906 5906 5906 5904 5902 5901 5900 5899 5897 5896 5895 5893 5892 5890 5888 5886 5885 5883 5881 5880 5879 5877 5876 5875 5874 5873 5872 5871 5869 5868 5867 5866 5865 5864 5863 5863 5862 5862 5861 5861 5861 5860 5859
5902 5903 5905 5905 5905 5905 5903 5902 5903 5900 5899 5898 5897 5896 5895 5894 5892 5891 5889 5887 5886 5884 5882 5880 5879 5877 5876 5874 5873 5872 5871 5869 5868 5867 5866 5864 5863 5862 5861 5860 5859 5858 5858 5857 5857 5856 5856 5855 5855
5899 5900 5902 5903 5903 5903 5900 5899 5899 5896 5896 5895 5894 5893 5892 5891 5889 5888 5886 5885 5883 5881 5879 5877 5876 5874 5872 5871 5870 5868 5867 5866 5864 5863 5861 5860 5858 5857 5856 5855 5854 5853 5853 5852 5852 5851 5851 5850 5850
5894 5895 5896 5897 5897 5897 5897 5895 5894 5892 5892 5891 5891 5890 5889 5887 5886 5884 5883 5881 5880 5878 5876 5874 5872 5870 5869 5867 5866 5864 5863 5861 5860 5858 5857 5855 5854 5853 5852 5851 5850 5849 5848 5847 5846 5846 5845 5845 5844
5890 5891 5891 5892 5892 5893 5893 5891 5890 5888 5888 5887 5886 5885 5884 5883 5882 5881 5879 5878 5876 5874 5872 5870 5868 5866 5865 5863 5862 5860 5858 5856 5855 5853 5852 5850 5849 5848 5847 5846 5844 5843 5842 5841 5840 5840 5839 5839 5839
5885 5885 5885 5886 5887 5888 5889 5890 5885 5884 5883 5882 5882 5881 5880 5879 5878 5876 5875 5873 5871 5870 5868 5866 5864 5862 5861 5859 5857 5855 5853 5852 5850 5848 5847 5845 5844 5842 5841 5840 5839 5837 5836 5835 5834 5834 5833 5833 5832
5879 5879 5880 5882 5881 5881 5882 5884 5879 5878 5877 5877 5876 5876 5875 5874 5873 5871 5870 5869 5867 5865 5863 5862 5860 5858 5856 5854 5852 5850 5848 5846 5845 5843 5841 5840 5838 5837 5835 5834 5832 5831 5830 5829 5828 5827 5826 5826 5826